TimeEDT,TemperatureF,Dew PointF,Humidity,Sea Level PressureIn,VisibilityMPH,Wind Direction,Wind SpeedMPH,Gust SpeedMPH,PrecipitationIn,Events,Conditions,WindDirDegrees,DateUTC
12:06 AM,78.8,68.0,69,30.09,10.0,SW,6.9,-,N/A,,Clear,220,2013-07-09 04:06:00
12:26 AM,78.8,68.0,69,30.08,10.0,SW,6.9,-,N/A,,Clear,220,2013-07-09 04:26:00
12:47 AM,78.8,68.0,69,30.08,10.0,SW,5.8,-,N/A,,Clear,220,2013-07-09 04:47:00
1:07 AM,78.8,68.0,69,30.09,10.0,SW,4.6,-,N/A,,Clear,220,2013-07-09 05:07:00
1:27 AM,78.8,68.0,69,30.09,10.0,SW,5.8,-,N/A,,Clear,220,2013-07-09 05:27:00
1:47 AM,77.0,69.8,78,30.08,10.0,SSW,5.8,-,N/A,,Clear,210,2013-07-09 05:47:00
2:07 AM,77.0,69.8,78,30.08,10.0,SSW,3.5,-,N/A,,Clear,210,2013-07-09 06:07:00
2:27 AM,77.0,69.8,78,30.08,10.0,SSW,4.6,-,N/A,,Clear,200,2013-07-09 06:27:00
2:47 AM,77.0,69.8,78,30.07,10.0,SW,4.6,-,N/A,,Clear,230,2013-07-09 06:47:00
3:07 AM,77.0,69.8,78,30.07,10.0,SW,4.6,-,N/A,,Clear,230,2013-07-09 07:07:00
3:27 AM,77.0,69.8,78,30.06,10.0,SW,4.6,-,N/A,,Clear,230,2013-07-09 07:27:00
3:47 AM,77.0,69.8,78,30.07,10.0,SW,8.1,-,N/A,,Clear,230,2013-07-09 07:47:00
4:07 AM,77.0,69.8,78,30.07,10.0,SW,5.8,-,N/A,,Clear,220,2013-07-09 08:07:00
4:27 AM,77.0,71.6,83,30.07,10.0,SW,3.5,-,N/A,,Clear,220,2013-07-09 08:27:00
4:47 AM,75.2,71.6,89,30.08,10.0,SW,5.8,-,N/A,,Clear,230,2013-07-09 08:47:00
5:07 AM,77.0,71.6,83,30.08,10.0,WSW,5.8,-,N/A,,Clear,240,2013-07-09 09:07:00
5:27 AM,77.0,71.6,83,30.08,10.0,SW,4.6,-,N/A,,Clear,230,2013-07-09 09:27:00
5:47 AM,75.2,71.6,89,30.08,10.0,WSW,5.8,-,N/A,,Clear,250,2013-07-09 09:47:00
6:07 AM,77.0,71.6,83,30.09,10.0,WSW,4.6,-,N/A,,Clear,250,2013-07-09 10:07:00
6:27 AM,75.2,71.6,89,30.09,10.0,West,5.8,-,N/A,,Clear,260,2013-07-09 10:27:00
6:47 AM,75.2,71.6,89,30.09,10.0,West,4.6,-,N/A,,Clear,270,2013-07-09 10:47:00
7:07 AM,77.0,71.6,83,30.09,10.0,WSW,4.6,-,N/A,,Clear,250,2013-07-09 11:07:00
7:27 AM,77.0,71.6,83,30.09,10.0,SW,4.6,-,N/A,,Clear,230,2013-07-09 11:27:00
7:47 AM,77.0,71.6,83,30.09,10.0,Calm,Calm,-,N/A,,Clear,0,2013-07-09 11:47:00
8:07 AM,77.0,71.6,83,30.10,10.0,Calm,Calm,-,N/A,,Clear,0,2013-07-09 12:07:00
8:27 AM,77.0,71.6,83,30.10,10.0,Calm,Calm,-,N/A,,Clear,0,2013-07-09 12:27:00
8:48 AM,77.0,71.6,83,30.10,10.0,Calm,Calm,-,N/A,,Clear,0,2013-07-09 12:48:00
9:08 AM,78.8,69.8,74,30.10,10.0,Calm,Calm,-,N/A,,Clear,0,2013-07-09 13:08:00
9:28 AM,78.8,71.6,78,30.10,10.0,SW,3.5,-,N/A,,Clear,220,2013-07-09 13:28:00
9:48 AM,78.8,69.8,74,30.10,10.0,Calm,Calm,-,N/A,,Clear,0,2013-07-09 13:48:00
10:08 AM,78.8,69.8,74,30.10,10.0,Calm,Calm,-,N/A,,Clear,0,2013-07-09 14:08:00
10:28 AM,78.8,69.8,74,30.10,10.0,SSW,3.5,-,N/A,,Clear,200,2013-07-09 14:28:00
10:48 AM,78.8,69.8,74,30.10,10.0,SW,4.6,-,N/A,,Clear,220,2013-07-09 14:48:00
11:08 AM,78.8,71.6,78,30.10,10.0,SW,3.5,-,N/A,,Clear,220,2013-07-09 15:08:00
11:28 AM,78.8,71.6,78,30.11,10.0,South,4.6,-,N/A,,Clear,190,2013-07-09 15:28:00
11:48 AM,78.8,71.6,78,30.11,10.0,South,4.6,-,N/A,,Clear,190,2013-07-09 15:48:00
12:08 PM,80.6,71.6,74,30.11,10.0,SW,3.5,-,N/A,,Clear,220,2013-07-09 16:08:00
12:28 PM,80.6,71.6,74,30.10,10.0,SSW,5.8,-,N/A,,Clear,210,2013-07-09 16:28:00
12:48 PM,80.6,69.8,70,30.10,10.0,SW,5.8,-,N/A,,Clear,220,2013-07-09 16:48:00
1:08 PM,80.6,71.6,74,30.10,10.0,SW,4.6,-,N/A,,Clear,220,2013-07-09 17:08:00
1:28 PM,80.6,71.6,74,30.10,10.0,SSW,4.6,-,N/A,,Clear,210,2013-07-09 17:28:00
1:48 PM,82.4,71.6,70,30.09,10.0,SSW,5.8,-,N/A,,Clear,200,2013-07-09 17:48:00
2:08 PM,82.4,71.6,70,30.08,10.0,Calm,Calm,-,N/A,,Clear,0,2013-07-09 18:08:00
2:28 PM,84.2,69.8,62,30.08,10.0,WSW,4.6,-,N/A,,Clear,240,2013-07-09 18:28:00
2:48 PM,86.0,68.0,55,30.07,10.0,WSW,4.6,-,N/A,,Clear,250,2013-07-09 18:48:00
3:08 PM,84.2,68.0,58,30.07,10.0,WSW,5.8,-,N/A,,Clear,240,2013-07-09 19:08:00
3:28 PM,86.0,68.0,55,30.06,10.0,SSW,5.8,-,N/A,,Clear,210,2013-07-09 19:28:00
3:48 PM,84.2,68.0,58,30.06,10.0,South,4.6,-,N/A,,Clear,190,2013-07-09 19:48:00
4:08 PM,84.2,69.8,62,30.06,10.0,South,5.8,-,N/A,,Clear,180,2013-07-09 20:08:00
4:28 PM,82.4,69.8,66,30.06,10.0,South,5.8,-,N/A,,Clear,170,2013-07-09 20:28:00
4:48 PM,80.6,71.6,74,30.06,7.0,Calm,Calm,-,N/A,Rain,Rain,0,2013-07-09 20:48:00
5:08 PM,80.6,71.6,74,30.05,10.0,SSE,5.8,-,N/A,,Scattered Clouds,160,2013-07-09 21:08:00
5:28 PM,82.4,69.8,66,30.04,10.0,South,4.6,-,N/A,,Clear,180,2013-07-09 21:28:00
5:49 PM,82.4,69.8,66,30.03,10.0,South,5.8,-,N/A,,Clear,170,2013-07-09 21:49:00
6:09 PM,82.4,69.8,66,30.02,10.0,SSE,5.8,-,N/A,,Clear,160,2013-07-09 22:09:00
6:29 PM,82.4,69.8,66,30.01,10.0,South,6.9,-,N/A,,Clear,170,2013-07-09 22:29:00
6:49 PM,82.4,69.8,66,30.01,10.0,South,4.6,-,N/A,,Clear,170,2013-07-09 22:49:00
7:09 PM,82.4,71.6,70,30.02,10.0,South,4.6,-,N/A,,Clear,170,2013-07-09 23:09:00
7:29 PM,82.4,71.6,70,30.01,10.0,South,5.8,-,N/A,,Scattered Clouds,170,2013-07-09 23:29:00
7:49 PM,82.4,71.6,70,30.01,10.0,South,4.6,-,N/A,,Scattered Clouds,180,2013-07-09 23:49:00
8:09 PM,82.4,71.6,70,30.02,10.0,South,4.6,-,N/A,,Scattered Clouds,180,2013-07-10 00:09:00
8:29 PM,80.6,71.6,74,30.02,10.0,South,5.8,-,N/A,,Clear,180,2013-07-10 00:29:00
8:49 PM,80.6,71.6,74,30.03,10.0,South,4.6,-,N/A,,Scattered Clouds,180,2013-07-10 00:49:00
9:09 PM,80.6,71.6,74,30.04,10.0,South,4.6,-,N/A,,Mostly Cloudy,180,2013-07-10 01:09:00
9:29 PM,80.6,73.4,79,30.05,10.0,South,4.6,-,N/A,,Scattered Clouds,170,2013-07-10 01:29:00
9:49 PM,80.6,75.2,84,30.05,10.0,South,4.6,-,N/A,,Clear,170,2013-07-10 01:49:00
10:09 PM,80.6,75.2,84,30.05,10.0,South,4.6,-,N/A,,Clear,180,2013-07-10 02:09:00
10:29 PM,80.6,75.2,84,30.05,10.0,South,5.8,-,N/A,,Clear,170,2013-07-10 02:29:00
10:49 PM,80.6,73.4,79,30.04,10.0,South,4.6,-,N/A,,Clear,180,2013-07-10 02:49:00
11:09 PM,80.6,73.4,79,30.04,10.0,South,4.6,-,N/A,,Scattered Clouds,180,2013-07-10 03:09:00
11:29 PM,80.6,71.6,74,30.03,10.0,SSE,5.8,-,N/A,,Scattered Clouds,160,2013-07-10 03:29:00
11:49 PM,78.8,73.4,83,30.03,10.0,South,4.6,-,N/A,,Scattered Clouds,180,2013-07-10 03:49:00